When you browse on this site, cookies collect data to enhance your experience and personalize the content and advertising you see.
Visit our Privacy Policy to learn more. By continuing to use the site, you agree to this use of cookies and data.

Hourly Weather Hutora Dubskie

Today, 5 August, Wednesday

Time Temperature Precipitation Wind Pressure Humidity
00:00 +17°C° 0 mm 4 mps 740 mmHg 82%
01:00 +17°C° 0 mm 4 mps 740 mmHg 83%
02:00 +17°C° 0 mm 4 mps 740 mmHg 83%
03:00 +17°C° 0 mm 4 mps 740 mmHg 83%
04:00 +17°C° 0 mm 4 mps 740 mmHg 83%
05:00 +17°C° 0 mm 4 mps 740 mmHg 83%
06:00 +18°C° 0.2 mm 4 mps 740 mmHg 84%
07:00 +18°C° 0.2 mm 4 mps 740 mmHg 85%
08:00 +18°C° 0.2 mm 4 mps 741 mmHg 85%
09:00 +18°C° 0.1 mm 3 mps 741 mmHg 86%
10:00 +19°C° 0.1 mm 3 mps 741 mmHg 86%
11:00 +19°C° 0.1 mm 3 mps 741 mmHg 86%
12:00 +19°C° 0 mm 3 mps 741 mmHg 84%
13:00 +20°C° 0 mm 2 mps 742 mmHg 82%
14:00 +20°C° 0 mm 2 mps 742 mmHg 79%
15:00 +21°C° 0 mm 2 mps 742 mmHg 80%
16:00 +21°C° 0 mm 2 mps 742 mmHg 80%
17:00 +21°C° 0 mm 2 mps 742 mmHg 80%
18:00 +21°C° 0.3 mm 1 mps 742 mmHg 85%
19:00 +20°C° 0.3 mm 1 mps 743 mmHg 90%
20:00 +19°C° 0.3 mm 1 mps 743 mmHg 95%
21:00 +19°C° 0 mm 1 mps 743 mmHg 95%
22:00 +18°C° 0 mm 1 mps 743 mmHg 96%
23:00 +16°C° 0 mm 1 mps 743 mmHg 97%

Tomorrow, 6 August, Thursday

Time Temperature Precipitation Wind Pressure Humidity
00:00 +16°C° 0 mm 1 mps 744 mmHg 97%
01:00 +15°C° 0 mm 1 mps 744 mmHg 97%
02:00 +15°C° 0 mm 1 mps 744 mmHg 96%
03:00 +15°C° 0 mm 1 mps 744 mmHg 95%
04:00 +15°C° 0 mm 1 mps 745 mmHg 93%
05:00 +15°C° 0 mm 1 mps 745 mmHg 92%
06:00 +16°C° 0 mm 1 mps 745 mmHg 85%
07:00 +19°C° 0 mm 1 mps 746 mmHg 79%
08:00 +19°C° 0 mm 2 mps 746 mmHg 72%
09:00 +20°C° 0 mm 2 mps 746 mmHg 65%
10:00 +21°C° 0 mm 2 mps 746 mmHg 57%
11:00 +24°C° 0 mm 3 mps 746 mmHg 50%
12:00 +24°C° 0 mm 3 mps 746 mmHg 49%
13:00 +24°C° 0 mm 3 mps 747 mmHg 47%
14:00 +25°C° 0 mm 3 mps 747 mmHg 46%
15:00 +24°C° 0 mm 3 mps 747 mmHg 48%
16:00 +24°C° 0 mm 3 mps 747 mmHg 51%
17:00 +24°C° 0 mm 3 mps 747 mmHg 54%
18:00 +21°C° 0 mm 2 mps 747 mmHg 63%
19:00 +19°C° 0 mm 2 mps 747 mmHg 72%
20:00 +18°C° 0 mm 1 mps 747 mmHg 81%
21:00 +16°C° 0 mm 1 mps 747 mmHg 83%
22:00 +15°C° 0 mm 1 mps 748 mmHg 84%
23:00 +15°C° 0 mm 1 mps 748 mmHg 86%

Day after tomorrow, 7 August, Friday

Time Temperature Precipitation Wind Pressure Humidity
00:00 +15°C° 0 mm 1 mps 748 mmHg 86%
01:00 +15°C° 0 mm 1 mps 748 mmHg 86%
02:00 +15°C° 0 mm 1 mps 748 mmHg 86%
03:00 +15°C° 0 mm 1 mps 748 mmHg 87%
04:00 +15°C° 0 mm 1 mps 748 mmHg 89%
05:00 +15°C° 0 mm 1 mps 749 mmHg 90%
06:00 +16°C° 0 mm 1 mps 749 mmHg 83%
07:00 +19°C° 0 mm 1 mps 749 mmHg 76%
08:00 +21°C° 0 mm 1 mps 749 mmHg 69%
09:00 +22°C° 0 mm 1 mps 749 mmHg 66%
10:00 +23°C° 0 mm 1 mps 749 mmHg 63%
11:00 +24°C° 0 mm 1 mps 749 mmHg 60%
12:00 +23°C° 0.3 mm 1 mps 749 mmHg 63%
13:00 +23°C° 0.3 mm 1 mps 749 mmHg 67%
14:00 +23°C° 0.3 mm 1 mps 748 mmHg 70%
15:00 +22°C° 0.4 mm 1 mps 748 mmHg 75%
16:00 +22°C° 0.4 mm 1 mps 748 mmHg 80%
17:00 +21°C° 0.4 mm 1 mps 748 mmHg 85%
18:00 +20°C° 0.1 mm 1 mps 748 mmHg 88%
19:00 +19°C° 0.1 mm 1 mps 748 mmHg 90%
20:00 +18°C° 0.1 mm 1 mps 748 mmHg 93%
21:00 +16°C° 0 mm 1 mps 748 mmHg 94%
22:00 +16°C° 0 mm 1 mps 748 mmHg 94%
23:00 +15°C° 0 mm 1 mps 748 mmHg 95%

8 August, Saturday

Time Temperature Precipitation Wind Pressure Humidity
00:00 +15°C° 0 mm 1 mps 748 mmHg 95%
01:00 +14°C° 0 mm 0 mps 748 mmHg 95%
02:00 +13°C° 0 mm 0 mps 748 mmHg 95%
03:00 +13°C° 0 mm 0 mps 748 mmHg 95%
04:00 +14°C° 0 mm 0 mps 748 mmHg 95%
05:00 +14°C° 0 mm 0 mps 748 mmHg 95%
06:00 +15°C° 0 mm 0 mps 748 mmHg 90%
07:00 +17°C° 0 mm 0 mps 748 mmHg 85%
08:00 +19°C° 0 mm 0 mps 748 mmHg 81%
09:00 +23°C° 0.1 mm 1 mps 748 mmHg 72%
10:00 +24°C° 0.1 mm 1 mps 748 mmHg 64%
11:00 +26°C° 0.1 mm 1 mps 747 mmHg 56%
12:00 +26°C° 0.1 mm 1 mps 747 mmHg 53%
13:00 +26°C° 0.1 mm 1 mps 747 mmHg 50%
14:00 +27°C° 0.1 mm 1 mps 746 mmHg 48%
15:00 +26°C° 0.1 mm 1 mps 746 mmHg 54%
16:00 +25°C° 0.1 mm 1 mps 746 mmHg 60%
17:00 +24°C° 0.1 mm 1 mps 745 mmHg 66%
18:00 +22°C° 0 mm 1 mps 745 mmHg 71%
19:00 +20°C° 0 mm 1 mps 745 mmHg 76%
20:00 +19°C° 0 mm 1 mps 745 mmHg 81%
21:00 +18°C° 0 mm 1 mps 745 mmHg 82%
22:00 +18°C° 0 mm 1 mps 744 mmHg 83%
23:00 +16°C° 0 mm 1 mps 744 mmHg 84%

9 August, Sunday

Time Temperature Precipitation Wind Pressure Humidity
00:00 +16°C° 0 mm 1 mps 744 mmHg 84%
01:00 +15°C° 0 mm 1 mps 744 mmHg 84%
02:00 +14°C° 0 mm 0 mps 744 mmHg 84%
03:00 +14°C° 0 mm 0 mps 744 mmHg 83%
04:00 +15°C° 0 mm 0 mps 744 mmHg 82%
05:00 +15°C° 0 mm 0 mps 743 mmHg 81%
06:00 +19°C° 0 mm 1 mps 743 mmHg 75%
07:00 +20°C° 0 mm 1 mps 743 mmHg 68%
08:00 +22°C° 0 mm 1 mps 743 mmHg 62%
09:00 +23°C° 0 mm 1 mps 743 mmHg 57%
10:00 +24°C° 0 mm 1 mps 743 mmHg 52%
11:00 +25°C° 0 mm 1 mps 742 mmHg 47%
12:00 +25°C° 0 mm 2 mps 742 mmHg 46%
13:00 +26°C° 0 mm 2 mps 742 mmHg 46%
14:00 +26°C° 0 mm 2 mps 741 mmHg 45%
15:00 +25°C° 0 mm 2 mps 741 mmHg 48%
16:00 +25°C° 0 mm 2 mps 741 mmHg 51%
17:00 +24°C° 0 mm 2 mps 741 mmHg 54%
18:00 +21°C° 0 mm 2 mps 740 mmHg 64%
19:00 +20°C° 0 mm 1 mps 740 mmHg 74%
20:00 +18°C° 0 mm 1 mps 740 mmHg 84%
21:00 +16°C° 0 mm 1 mps 740 mmHg 86%
22:00 +15°C° 0 mm 1 mps 740 mmHg 88%
23:00 +15°C° 0 mm 1 mps 740 mmHg 91%

10 August, Monday

Time Temperature Precipitation Wind Pressure Humidity
00:00 +13°C° 0 mm 0 mps 740 mmHg 91%
01:00 +13°C° 0 mm 0 mps 740 mmHg 91%
02:00 +13°C° 0 mm 0 mps 740 mmHg 92%
03:00 +13°C° 0 mm 0 mps 740 mmHg 91%
04:00 +13°C° 0 mm 0 mps 740 mmHg 91%
05:00 +14°C° 0 mm 1 mps 740 mmHg 90%
06:00 +16°C° 0 mm 1 mps 740 mmHg 83%
07:00 +18°C° 0 mm 2 mps 740 mmHg 75%
08:00 +19°C° 0 mm 2 mps 740 mmHg 67%
09:00 +19°C° 0.4 mm 2 mps 740 mmHg 71%
10:00 +19°C° 0.4 mm 2 mps 740 mmHg 75%
11:00 +19°C° 0.4 mm 2 mps 740 mmHg 79%
12:00 +20°C° 0.4 mm 2 mps 740 mmHg 79%
13:00 +20°C° 0.4 mm 2 mps 739 mmHg 79%
14:00 +20°C° 0.4 mm 2 mps 739 mmHg 79%
15:00 +20°C° 0.6 mm 2 mps 739 mmHg 80%
16:00 +20°C° 0.6 mm 2 mps 739 mmHg 80%
17:00 +20°C° 0.6 mm 2 mps 739 mmHg 80%
18:00 +18°C° 0.1 mm 2 mps 739 mmHg 85%
19:00 +17°C° 0.1 mm 2 mps 739 mmHg 89%
20:00 +15°C° 0.1 mm 2 mps 739 mmHg 93%
21:00 +14°C° 0 mm 2 mps 740 mmHg 94%
22:00 +13°C° 0 mm 2 mps 740 mmHg 95%
23:00 +12°C° 0 mm 1 mps 740 mmHg 96%
Show more